Simultaneous Nadir Overpasses (SNOs) Predictions

Prediction of SNOs between NOAA-20 and AQUA Satellite Orbit:

Table of predicted SNOs for the next 14.0 days since TLE Epoch: 7/29/2023
Index Date (NOAA-20) Time (NOAA-20) Lat,Lon (NOAA-20) SZA (NOAA-20 ) Date (AQUA) Time (AQUA) Lat,Lon (AQUA) SZA (AQUA ) Distance(km) Time Diff (sec)
1 07/31/2023 11:25:04 80.70, -81.20 72.24 07/31/2023 11:25:28 80.71, -81.14 72.22 1.13 24
2 07/31/2023 12:15:45 -80.80, 87.66 108.01 07/31/2023 12:14:50 -80.79, 87.53 107.95 2.29 55
3 08/03/2023 01:09:46 -80.66,-108.11 107.00 08/03/2023 01:10:52 -80.66,-107.99 107.07 2.20 66
4 08/03/2023 02:00:27 80.73, 60.36 72.82 08/03/2023 02:00:13 80.73, 60.50 72.81 2.48 14
5 08/05/2023 15:45:08 -80.73, 34.13 106.51 08/05/2023 15:45:36 -80.72, 34.08 106.52 0.98 28
6 08/05/2023 16:35:48 80.81,-157.04 73.26 08/05/2023 16:34:56 80.82,-157.11 73.30 1.11 52
7 08/08/2023 05:29:49 80.70, 7.44 74.27 08/08/2023 05:30:57 80.70, 7.46 74.22 0.49 68
8 08/08/2023 06:20:30 -80.79, 176.34 105.98 08/08/2023 06:20:19 -80.79, 176.20 105.95 2.49 11
9 08/10/2023 20:05:12 80.74, 149.26 74.89 08/10/2023 20:05:40 80.74, 149.29 74.86 0.48 28



Historial Predications of SNOs between NOAA-20 and AQUA
